Regional Weather Roundup
Issued by NWS

Home | Current Version | Previous Version | Text Only | Print | Product List | Glossary Off
Versions: 1 2 3 4 5 6 7 8 9 10 11 12 13 14 15 16 17 18 19 20 21 22 23 24 25 26 27 28 29 30 31 32 33 34 35 36 37 38 39 40 41 42 43 44 45 46 47 48 49 50

329
ASUS43 KDMX 220901
RWRIA

WEATHER ROUNDUP FOR IOWA
NATIONAL WEATHER SERVICE DES MOINES IA
400 AM CDT SUN APR 22 2018

NOTE: "FAIR" INDICATES FEW OR NO CLOUDS BELOW 12,000 FEET WITH NO
SIGNIFICANT WEATHER AND/OR OBSTRUCTIONS TO VISIBILITY.

* - THESE STATIONS ARE NOT NWS STATIONS...THUS NOT UNDER NWS
QUALITY CONTROL.  THEY ALSO DO NOT REPORT WEATHER SUCH
AS PRECIPITATION OR FOG.

IAZ001>003-012>014-020>022-031>034-043>046-221000-
   NORTHWEST IOWA

CITY           SKY/WX    TMP DP  RH WIND       PRES   REMARKS
CARROLL *      CLOUDY    39  34  81 CALM      30.26R
CHEROKEE *     CLOUDY    38  36  91 CALM      30.28S
DENISON *      CLOUDY    43  32  65 E7        30.26R
LE MARS *      CLEAR     43  36  75 SE7       30.26S
ORANGE CITY *  CLEAR     39  37  93 E5        30.27S
SHELDON *      CLOUDY    37  36  93 SE7       30.26S WCI  32
SIOUX CITY     CLEAR     36  31  82 CALM      30.26S
SPENCER        CLOUDY    38  33  82 E7        30.29S WCI  33
STORM LAKE *   CLOUDY    41  34  75 SE9       30.27S
$$

IAZ055>058-069>071-079>083-090>094-221000-
   SOUTHWEST IOWA

CITY           SKY/WX    TMP DP  RH WIND       PRES   REMARKS
ATLANTIC *     CLOUDY    48  32  53 E10G17    30.22F
AUDUBON *      PTCLDY    43  34  70 CALM      30.24F
CLARINDA *     CLOUDY    48  30  49 NE8       30.21F
COUNCIL BLFS * CLOUDY    46  32  57 E8        30.21S
CRESTON *      CLOUDY    46  32  57 E14       30.21F
HARLAN  *      CLOUDY    46  32  57 NE8       30.25F
LAMONI         CLOUDY    48  31  51 NE13      30.18F
RED OAK *      CLOUDY    50  32  50 E10G16    30.20F
SHENANDOAH *   CLOUDY    48  32  53 NE10      30.19F
$$

IAZ047>049-059>061-072>074-084-221000-
   CENTRAL IOWA

CITY           SKY/WX    TMP DP  RH WIND       PRES   REMARKS
AMES           PTCLDY    41  33  73 CALM      30.28R
ANKENY *       CLOUDY    46  32  57 E7        30.27F
BOONE *        MOCLDY    41  36  81 E10       30.26R
CHARITON *     CLOUDY    46  32  57 NE10      30.22F
DES MOINES     CLOUDY    48  32  53 E8        30.25F
GRINNELL*      CLOUDY    42  33  71 E8        30.28S
KNOXVILLE *    CLOUDY    46  32  57 E12       30.23F
MARSHALLTOWN   CLOUDY    41  35  79 E7        30.28R
NEWTON *       CLOUDY    45  32  61 E12       30.26F
PELLA *        CLOUDY    47  32  56 E7        30.26F
$$

IAZ004>006-015-016-023>025-035-036-221000-
   NORTH CENTRAL IOWA

CITY           SKY/WX    TMP DP  RH WIND       PRES   REMARKS
ALGONA *       CLOUDY    41  36  81 E7        30.30R
CLARION *      CLOUDY    43  37  81 E9        30.30R
ESTHERVILLE    PTCLDY    33  31  92 NE5       30.29S WCI  29
FORT DODGE *   PTCLDY    42  37  82 NE7       30.29S
MASON CITY     CLOUDY    37  34  89 NE3       30.32R
FOREST CITY *  CLOUDY    41  34  75 CALM      30.31R
WEBSTER CITY * PTCLDY    45  36  70 NE7       30.26F
IOWA FALLS *   FAIR      45  37  72 NE7       30.31R
$$

IAZ007>011-017>019-026>030-037>042-050>054-066-221000-
   NORTHEAST IOWA

CITY           SKY/WX    TMP DP  RH WIND       PRES   REMARKS
CEDAR RAPIDS   FAIR      44  34  67 E9        30.29R
CHARLES CITY * CLOUDY    43  36  75 E7        30.31S
CLINTON *      FAIR      44  26  49 E8        30.32R
DECORAH *      CLOUDY    41  34  75 CALM      30.32S
DUBUQUE        MOCLDY    43  30  60 NE8       30.32S
MONTICELLO *   FAIR      46  28  49 CALM      30.32R
OELWEIN *      CLOUDY    43  37  81 E8        30.31S
WATERLOO       FAIR      43  35  73 E5        30.31R
$$

IAZ064-065-067-068-078-221000-
   EAST CENTRAL IOWA

CITY           SKY/WX    TMP DP  RH WIND       PRES   REMARKS
DAVENPORT      FAIR      44  25  47 NE9       30.31S
IOWA CITY      FAIR      47  31  53 NE9       30.30S
MUSCATINE *    FAIR      46  27  46 NE7       30.28F
QUAD CITIES    FAIR      46  26  45 E8        30.29S
$$

IAZ062-063-075>077-085>089-095>099-221000-
   SOUTHEAST IOWA

CITY           SKY/WX    TMP DP  RH WIND       PRES   REMARKS
BURLINGTON     CLOUDY    48  29  47 NE12      30.24F
FAIRFIELD *    CLOUDY    45  30  57 NE9       30.24F
FORT MADISON * CLOUDY    48  32  53 NE12      30.24F
KEOKUK *       CLOUDY    48  30  49 E14       30.21S
OSKALOOSA *    MOCLDY    45  32  60 E12       30.25F
CENTERVILLE *    N/A     46  32  57 NE9       30.22S
OTTUMWA        CLOUDY    46  32  58 NE10      30.23F
WASHINGTON *   CLOUDY    45  32  61 NE10      30.27F
$$

ABBREVIATIONS USED IN REMARKS
   TC - TEMPERATURES IN CELSIUS
  WCI - WIND CHILL INDEX
   HX - HEAT INDEX
  VSB - VISIBILITY
$$





USA.gov is the U.S. government's official web portal to all federal, state and local government web resources and services.